Погода в Темиртау

Казахстан     50˚03′31″N   72˚57′12″E
темп.,
°C
ветер,
м/с
пор.,
м/с
влажн.,
%
обл.,
%
осадки,
мм/ч
давл.,
гПа
погр.,
м
6 декабря, вс
вс600:00−21˚всв589990 0.1 1041126
03:00−21˚всв579969 0.0 104195
06:00−21˚всв459953 0.0 104252
09:00−21˚в23957 0.0 104322
12:00−16˚вюв22884 0.0 1043119
15:00−15˚юв12900 0.0 104236
18:00−19˚юв12910 0.0 104220
21:00−19˚вюв22880 0.0 104220
7 декабря, пн
пн700:00−19˚в22840 0.0 104120
03:00−18˚всв23830 0.0 103920
06:00−17˚всв33836 0.0 103820
09:00−16˚всв34860 0.0 103722
12:00−12˚св45860 0.0 1037139
15:00−11˚св35870 0.0 1036130
18:00−14˚св34830 0.0 103625
21:00−14˚всв23790 0.0 103720
8 декабря, вт
вт800:00−14˚св23770 0.0 103720
03:00−14˚св23750 0.0 103720
06:00−15˚юз017515 0.0 103620
09:00−14˚зсз127587 0.0 103721
12:00−11˚зюз348374 0.0 1037101
15:00−11˚зюз358776 0.0 1036151
18:00−14˚зюз468880 0.0 1037103
21:00−15˚зюз478995 0.0 1037131
9 декабря, ср
ср900:00−14˚зюз699592 0.3 1037264
03:00−13˚зюз6995100 0.6 1037301
06:00−13˚зюз61095100 1.1 1036334
09:00−13˚зюз71194100 0.7 1037392
12:00−12˚зюз81294100 1.4 1036451
15:00−11˚зюз81194100 0.6 1035482
18:00−12˚зюз61094100 1.1 1035387
21:00−13˚зюз5995100 0.3 1036299
10 декабря, чт
чт1000:00−13˚зюз5895100 0.8 1035293
03:00−13˚зюз4795100 0.4 1036266
06:00−15˚зюз4796100 0.8 1036197
09:00−16˚зюз359795 0.3 1037124
12:00−14˚зюз469595 0.5 1038244
15:00−14˚зюз459596 0.1 1039237
18:00−17˚зюз349893 0.1 104056
21:00−18˚зюз339898 0.1 104128